Total_Precipitation_Accumulation
0.27 0.29 0.29 0.31 0.30 0.26 0.22 0.22 0.24 0.27 0.30 0.31 0.29 0.28 0.33 0.32 0.38 0.26 0.11 0.05 0.02 0.01 0.00 0.00 0.01 0.00 0.00 0.00 0.00 0.00 0.00 0.01 0.00 0.01 0.02 0.02 0.01 0.01 0.00 0.01 0.00 0.01 0.03 0.08 0.12 0.17 0.20 0.18 0.19 0.22 0.23 0.19 0.22 0.40 0.57 0.68 1.01 0.96 1.29 1.39 1.35 1.02 0.82 0.84 0.79 0.75 0.52 0.45 0.36 0.35 0.26 0.16 0.10 0.04
0.27 0.30 0.32 0.32 0.32 0.28 0.30 0.31 0.27 0.28 0.32 0.37 0.37 0.34 0.29 0.30 0.43 0.33 0.23 0.12 0.04 0.02 0.00 0.00 0.00 0.01 0.00 0.00 0.00 0.01 0.01 0.01 0.01 0.01 0.01 0.02 0.02 0.01 0.00 0.00 0.01 0.00 0.00 0.03 0.08 0.12 0.18 0.22 0.20 0.19 0.17 0.21 0.19 0.21 0.39 0.54 0.87 1.25 1.20 1.21 1.34 1.04 0.75 0.59 0.63 0.58 0.51 0.50 0.47 0.30 0.27 0.18 0.12 0.05
0.28 0.33 0.33 0.31 0.32 0.30 0.31 0.34 0.35 0.36 0.39 0.42 0.39 0.34 0.30 0.30 0.35 0.38 0.30 0.28 0.09 0.02 0.03 0.02 0.00 0.00 0.01 0.01 0.00 0.00 0.01 0.01 0.01 0.01 0.01 0.01 0.01 0.01 0.01 0.00 0.00 0.01 0.01 0.01 0.02 0.08 0.14 0.21 0.25 0.23 0.19 0.18 0.20 0.17 0.22 0.33 0.61 0.88 1.18 1.31 1.24 1.22 0.86 0.73 0.49 0.39 0.36 0.39 0.46 0.40 0.28 0.23 0.16 0.07
0.21 0.25 0.30 0.30 0.31 0.33 0.39 0.42 0.41 0.42 0.43 0.45 0.53 0.51 0.41 0.36 0.31 0.36 0.44 0.40 0.21 0.04 0.02 0.03 0.04 0.03 0.02 0.03 0.02 0.01 0.01 0.01 0.02 0.02 0.01 0.01 0.00 0.01 0.01 0.01 0.00 0.00 0.00 0.01 0.02 0.03 0.07 0.15 0.25 0.25 0.25 0.21 0.21 0.18 0.20 0.23 0.33 0.70 0.82 1.25 1.34 1.36 1.04 0.75 0.66 0.55 0.36 0.31 0.36 0.44 0.35 0.24 0.20 0.17
0.17 0.22 0.27 0.27 0.27 0.32 0.44 0.46 0.44 0.45 0.48 0.52 0.59 0.62 0.59 0.50 0.36 0.35 0.42 0.40 0.23 0.08 0.06 0.04 0.06 0.09 0.10 0.10 0.07 0.03 0.01 0.01 0.02 0.02 0.01 0.01 0.01 0.00 0.00 0.01 0.01 0.00 0.00 0.00 0.00 0.01 0.04 0.08 0.18 0.25 0.32 0.26 0.25 0.21 0.18 0.18 0.21 0.29 0.48 0.74 1.15 1.29 1.36 0.86 0.63 0.55 0.50 0.34 0.31 0.37 0.45 0.31 0.24 0.22
0.11 0.17 0.21 0.20 0.21 0.23 0.36 0.43 0.44 0.42 0.44 0.52 0.61 0.62 0.65 0.61 0.45 0.35 0.48 0.44 0.30 0.15 0.15 0.05 0.07 0.10 0.13 0.18 0.15 0.07 0.03 0.02 0.02 0.02 0.01 0.01 0.01 0.00 0.00 0.00 0.00 0.00 0.00 0.00 0.00 0.01 0.02 0.05 0.08 0.30 0.26 0.29 0.30 0.25 0.21 0.18 0.16 0.20 0.29 0.40 0.83 1.13 1.39 1.17 0.86 0.60 0.39 0.37 0.35 0.44 0.39 0.36 0.27 0.20
0.13 0.15 0.16 0.18 0.19 0.21 0.28 0.29 0.33 0.40 0.48 0.49 0.54 0.58 0.58 0.59 0.47 0.37 0.44 0.55 0.46 0.21 0.09 0.06 0.11 0.14 0.17 0.19 0.20 0.14 0.07 0.03 0.03 0.03 0.02 0.01 0.01 0.00 0.00 0.00 0.00 0.00 0.00 0.00 0.00 0.01 0.00 0.01 0.04 0.10 0.25 0.27 0.29 0.25 0.26 0.24 0.18 0.18 0.20 0.26 0.48 0.73 1.12 1.40 1.11 0.83 0.53 0.31 0.29 0.32 0.35 0.41 0.33 0.30
0.17 0.17 0.19 0.17 0.20 0.24 0.27 0.27 0.28 0.31 0.39 0.50 0.59 0.56 0.54 0.61 0.57 0.44 0.43 0.55 0.55 0.31 0.16 0.09 0.09 0.14 0.20 0.23 0.21 0.18 0.15 0.12 0.08 0.07 0.05 0.02 0.01 0.01 0.00 0.00 0.00 0.00 0.00 0.00 0.00 0.00 0.00 0.00 0.01 0.05 0.14 0.22 0.27 0.28 0.25 0.25 0.22 0.18 0.16 0.27 0.30 0.50 0.71 1.23 1.48 1.07 0.80 0.48 0.29 0.18 0.19 0.35 0.37 0.22
0.19 0.19 0.18 0.20 0.22 0.23 0.23 0.25 0.30 0.29 0.28 0.32 0.40 0.45 0.45 0.51 0.49 0.47 0.51 0.55 0.56 0.50 0.35 0.19 0.13 0.14 0.21 0.27 0.26 0.22 0.23 0.22 0.19 0.14 0.10 0.07 0.04 0.02 0.01 0.00 0.00 0.00 0.00 0.00 0.00 0.00 0.00 0.00 0.00 0.03 0.07 0.16 0.23 0.27 0.26 0.24 0.21 0.19 0.18 0.19 0.25 0.41 0.43 0.66 1.21 1.38 1.18 0.75 0.49 0.28 0.16 0.17 0.57 0.40
0.19 0.22 0.22 0.21 0.23 0.25 0.27 0.29 0.27 0.27 0.29 0.31 0.35 0.39 0.41 0.40 0.41 0.43 0.42 0.47 0.57 0.54 0.36 0.21 0.19 0.23 0.27 0.31 0.33 0.28 0.24 0.25 0.24 0.21 0.17 0.12 0.08 0.06 0.04 0.01 0.00 0.00 0.00 0.00 0.00 0.00 0.00 0.00 0.00 0.00 0.05 0.08 0.17 0.25 0.26 0.24 0.21 0.22 0.20 0.20 0.21 0.35 0.49 0.53 0.60 1.18 1.26 1.11 0.62 0.51 0.27 0.16 0.16 0.28
0.22 0.23 0.26 0.26 0.28 0.31 0.36 0.37 0.38 0.35 0.32 0.35 0.36 0.35 0.39 0.41 0.37 0.35 0.34 0.36 0.42 0.48 0.39 0.28 0.21 0.24 0.25 0.27 0.31 0.31 0.29 0.26 0.23 0.22 0.20 0.17 0.13 0.09 0.07 0.05 0.02 0.01 0.00 0.00 0.00 0.00 0.00 0.00 0.01 0.00 0.02 0.06 0.09 0.20 0.22 0.24 0.23 0.21 0.23 0.28 0.24 0.31 0.43 0.51 0.43 0.62 1.06 1.18 1.14 0.63 0.44 0.25 0.17 0.11
0.21 0.24 0.26 0.27 0.27 0.32 0.40 0.43 0.41 0.41 0.43 0.44 0.43 0.39 0.37 0.37 0.39 0.34 0.31 0.29 0.33 0.37 0.36 0.33 0.26 0.18 0.23 0.28 0.28 0.31 0.43 0.47 0.35 0.23 0.20 0.17 0.14 0.11 0.08 0.06 0.06 0.04 0.03 0.01 0.00 0.02 0.02 0.01 0.01 0.00 0.01 0.01 0.05 0.12 0.21 0.23 0.25 0.23 0.23 0.26 0.30 0.26 0.35 0.30 0.38 0.40 0.55 0.91 1.05 1.07 0.69 0.40 0.18 0.12
0.15 0.16 0.22 0.29 0.33 0.33 0.34 0.35 0.35 0.38 0.46 0.52 0.59 0.40 0.36 0.41 0.41 0.37 0.33 0.32 0.27 0.30 0.29 0.30 0.28 0.28 0.27 0.29 0.30 0.34 0.35 0.38 0.30 0.19 0.15 0.16 0.14 0.12 0.09 0.08 0.07 0.09 0.10 0.08 0.04 0.01 0.02 0.03 0.03 0.03 0.02 0.01 0.02 0.05 0.15 0.21 0.24 0.24 0.24 0.26 0.28 0.30 0.30 0.32 0.34 0.31 0.36 0.52 0.79 0.91 1.00 0.79 0.41 0.20
0.11 0.11 0.13 0.19 0.24 0.27 0.28 0.30 0.34 0.36 0.36 0.47 0.47 0.48 0.50 0.49 0.47 0.42 0.39 0.39 0.33 0.28 0.29 0.25 0.26 0.25 0.23 0.22 0.26 0.24 0.22 0.21 0.23 0.28 0.30 0.25 0.23 0.20 0.16 0.14 0.12 0.11 0.13 0.14 0.12 0.07 0.02 0.02 0.02 0.05 0.03 0.03 0.02 0.03 0.07 0.14 0.20 0.24 0.24 0.25 0.33 0.32 0.24 0.27 0.27 0.29 0.29 0.36 0.51 0.65 0.76 0.88 0.81 0.47
0.11 0.11 0.10 0.11 0.13 0.14 0.13 0.16 0.20 0.23 0.35 0.39 0.32 0.33 0.42 0.51 0.59 0.57 0.47 0.35 0.38 0.37 0.32 0.32 0.33 0.30 0.26 0.26 0.27 0.28 0.32 0.31 0.36 0.33 0.30 0.31 0.37 0.35 0.27 0.24 0.20 0.16 0.15 0.15 0.14 0.11 0.06 0.03 0.02 0.01 0.01 0.15 0.16 0.02 0.02 0.08 0.32 0.25 0.21 0.21 0.24 0.27 0.20 0.22 0.26 0.28 0.34 0.33 0.39 0.45 0.54 0.64 0.72 0.83
0.09 0.08 0.08 0.08 0.09 0.10 0.09 0.11 0.14 0.22 0.26 0.20 0.21 0.25 0.35 0.41 0.43 0.46 0.61 0.52 0.36 0.35 0.36 0.33 0.34 0.35 0.31 0.33 0.34 0.36 0.41 0.41 0.43 0.47 0.43 0.43 0.43 0.38 0.32 0.23 0.19 0.17 0.14 0.14 0.15 0.13 0.10 0.06 0.03 0.02 0.01 0.00 0.00 0.01 0.03 0.03 0.08 0.16 0.23 0.22 0.21 0.24 0.22 0.18 0.24 0.30 0.30 0.32 0.37 0.38 0.40 0.49 0.57 0.61
0.07 0.06 0.06 0.06 0.06 0.07 0.06 0.07 0.15 0.22 0.18 0.15 0.15 0.19 0.26 0.29 0.31 0.33 0.40 0.46 0.45 0.41 0.35 0.32 0.28 0.29 0.35 0.33 0.34 0.36 0.35 0.39 0.43 0.45 0.46 0.42 0.39 0.35 0.30 0.26 0.22 0.17 0.17 0.19 0.21 0.18 0.13 0.09 0.06 0.03 0.01 0.02 0.00 0.00 0.00 0.02 0.04 0.10 0.19 0.25 0.22 0.23 0.19 0.18 0.17 0.26 0.27 0.31 0.38 0.39 0.32 0.35 0.47 0.54
0.06 0.08 0.11 0.11 0.10 0.09 0.08 0.09 0.18 0.20 0.16 0.11 0.11 0.15 0.22 0.24 0.24 0.27 0.31 0.36 0.36 0.36 0.39 0.35 0.32 0.30 0.34 0.32 0.32 0.37 0.39 0.41 0.39 0.40 0.36 0.34 0.33 0.34 0.30 0.29 0.31 0.31 0.30 0.26 0.26 0.21 0.15 0.12 0.09 0.06 0.03 0.02 0.01 0.00 0.00 0.00 0.02 0.05 0.13 0.20 0.25 0.22 0.20 0.19 0.18 0.22 0.25 0.30 0.28 0.39 0.36 0.29 0.34 0.48
0.08 0.07 0.09 0.11 0.12 0.15 0.10 0.11 0.18 0.23 0.16 0.12 0.12 0.14 0.19 0.22 0.22 0.25 0.30 0.30 0.32 0.37 0.38 0.37 0.34 0.32 0.32 0.33 0.27 0.26 0.31 0.37 0.38 0.39 0.36 0.34 0.34 0.42 0.58 0.42 0.36 0.35 0.32 0.29 0.29 0.28 0.18 0.12 0.10 0.09 0.07 0.04 0.03 0.01 0.00 0.00 0.02 0.03 0.07 0.14 0.20 0.22 0.20 0.19 0.20 0.20 0.24 0.27 0.30 0.30 0.34 0.35 0.27 0.36
0.04 0.05 0.07 0.09 0.10 0.18 0.11 0.15 0.16 0.19 0.19 0.11 0.11 0.11 0.13 0.16 0.19 0.22 0.24 0.24 0.28 0.36 0.45 0.44 0.41 0.46 0.35 0.31 0.30 0.29 0.30 0.30 0.34 0.35 0.34 0.39 0.45 0.44 0.43 0.38 0.32 0.28 0.28 0.24 0.23 0.19 0.17 0.14 0.11 0.10 0.09 0.08 0.07 0.04 0.02 0.00 0.01 0.02 0.05 0.09 0.15 0.20 0.20 0.18 0.17 0.16 0.16 0.22 0.29 0.28 0.31 0.36 0.32 0.31
0.04 0.04 0.07 0.10 0.19 0.21 0.16 0.19 0.20 0.18 0.15 0.12 0.13 0.13 0.13 0.13 0.14 0.16 0.18 0.19 0.17 0.18 0.22 0.27 0.26 0.25 0.25 0.24 0.26 0.29 0.31 0.32 0.36 0.49 0.58 0.47 0.35 0.32 0.34 0.29 0.26 0.24 0.23 0.22 0.18 0.14 0.12 0.12 0.12 0.13 0.13 0.11 0.09 0.08 0.06 0.03 0.02 0.02 0.02 0.05 0.09 0.15 0.18 0.19 0.18 0.16 0.15 0.15 0.21 0.29 0.31 0.32 0.34 0.35
0.03 0.03 0.05 0.08 0.25 0.24 0.21 0.18 0.20 0.17 0.27 0.12 0.13 0.13 0.12 0.10 0.10 0.10 0.12 0.13 0.13 0.14 0.16 0.20 0.19 0.16 0.18 0.20 0.20 0.27 0.34 0.38 0.38 0.37 0.46 0.50 0.43 0.39 0.29 0.25 0.23 0.23 0.23 0.21 0.18 0.15 0.13 0.12 0.13 0.14 0.15 0.14 0.14 0.11 0.09 0.07 0.05 0.03 0.03 0.03 0.04 0.08 0.13 0.17 0.18 0.16 0.14 0.14 0.15 0.21 0.29 0.30 0.37 0.42
0.02 0.03 0.03 0.05 0.18 0.21 0.20 0.17 0.18 0.14 0.13 0.11 0.13 0.18 0.18 0.15 0.11 0.08 0.08 0.10 0.10 0.09 0.09 0.10 0.11 0.10 0.10 0.12 0.15 0.20 0.27 0.29 0.28 0.35 0.36 0.32 0.37 0.41 0.36 0.33 0.29 0.27 0.25 0.21 0.19 0.16 0.16 0.16 0.17 0.15 0.18 0.19 0.15 0.13 0.12 0.11 0.09 0.08 0.06 0.05 0.05 0.05 0.09 0.11 0.12 0.17 0.16 0.14 0.14 0.15 0.20 0.27 0.33 0.45
0.02 0.02 0.03 0.04 0.13 0.15 0.14 0.13 0.14 0.13 0.11 0.12 0.14 0.14 0.18 0.20 0.16 0.09 0.07 0.05 0.08 0.08 0.07 0.07 0.07 0.06 0.06 0.06 0.08 0.12 0.15 0.23 0.26 0.23 0.23 0.24 0.22 0.22 0.29 0.32 0.30 0.25 0.24 0.19 0.18 0.18 0.17 0.16 0.17 0.17 0.15 0.14 0.16 0.14 0.12 0.12 0.11 0.10 0.09 0.07 0.07 0.06 0.08 0.08 0.09 0.10 0.13 0.15 0.17 0.16 0.15 0.19 0.28 0.36
0.04 0.04 0.05 0.05 0.10 0.12 0.10 0.10 0.10 0.11 0.08 0.09 0.10 0.14 0.16 0.17 0.12 0.09 0.06 0.04 0.04 0.05 0.05 0.06 0.07 0.06 0.06 0.05 0.05 0.08 0.11 0.11 0.15 0.18 0.19 0.23 0.21 0.19 0.16 0.16 0.17 0.20 0.22 0.23 0.20 0.16 0.23 0.26 0.28 0.23 0.17 0.15 0.13 0.12 0.12 0.12 0.12 0.12 0.11 0.10 0.09 0.07 0.09 0.08 0.08 0.11 0.12 0.15 0.17 0.18 0.16 0.16 0.21 0.31
0.04 0.05 0.07 0.07 0.09 0.10 0.08 0.08 0.08 0.09 0.08 0.07 0.09 0.08 0.07 0.05 0.06 0.05 0.05 0.05 0.04 0.04 0.05 0.04 0.04 0.06 0.08 0.08 0.07 0.07 0.10 0.09 0.09 0.10 0.13 0.17 0.17 0.17 0.18 0.16 0.13 0.12 0.14 0.14 0.16 0.17 0.17 0.19 0.17 0.18 0.17 0.15 0.12 0.11 0.14 0.15 0.15 0.14 0.13 0.12 0.10 0.09 0.09 0.09 0.08 0.08 0.08 0.11 0.14 0.15 0.14 0.14 0.15 0.21
0.05 0.06 0.08 0.08 0.07 0.07 0.06 0.06 0.05 0.06 0.07 0.06 0.07 0.05 0.04 0.03 0.03 0.04 0.04 0.05 0.05 0.04 0.04 0.04 0.04 0.04 0.04 0.06 0.08 0.08 0.08 0.07 0.07 0.11 0.18 0.12 0.14 0.16 0.14 0.16 0.16 0.14 0.13 0.19 0.18 0.13 0.15 0.16 0.15 0.17 0.15 0.13 0.12 0.13 0.13 0.14 0.14 0.14 0.14 0.14 0.13 0.12 0.21 0.14 0.11 0.08 0.07 0.07 0.09 0.11 0.17 0.17 0.12 0.16
0.05 0.07 0.08 0.08 0.05 0.05 0.05 0.04 0.04 0.03 0.05 0.06 0.05 0.03 0.02 0.02 0.02 0.03 0.03 0.04 0.05 0.05 0.04 0.04 0.04 0.03 0.03 0.03 0.02 0.04 0.06 0.07 0.08 0.07 0.06 0.08 0.19 0.15 0.13 0.17 0.12 0.14 0.16 0.20 0.17 0.14 0.13 0.12 0.13 0.11 0.12 0.16 0.14 0.14 0.14 0.12 0.12 0.11 0.11 0.12 0.12 0.12 0.14 0.12 0.11 0.11 0.11 0.07 0.07 0.08 0.11 0.13 0.12 0.11
0.05 0.05 0.05 0.06 0.04 0.04 0.04 0.03 0.03 0.02 0.03 0.04 0.03 0.03 0.02 0.01 0.02 0.03 0.04 0.05 0.05 0.04 0.03 0.03 0.03 0.03 0.02 0.02 0.01 0.01 0.01 0.03 0.08 0.11 0.09 0.07 0.11 0.08 0.11 0.11 0.11 0.11 0.21 0.19 0.19 0.18 0.16 0.14 0.12 0.11 0.09 0.08 0.11 0.11 0.12 0.12 0.10 0.13 0.13 0.14 0.14 0.13 0.12 0.11 0.11 0.11 0.11 0.11 0.11 0.09 0.09 0.11 0.12 0.12
0.03 0.03 0.04 0.04 0.05 0.05 0.05 0.04 0.04 0.04 0.04 0.03 0.03 0.02 0.02 0.02 0.02 0.03 0.03 0.04 0.05 0.05 0.04 0.03 0.03 0.02 0.02 0.01 0.02 0.01 0.02 0.03 0.04 0.08 0.11 0.10 0.08 0.09 0.12 0.16 0.14 0.12 0.12 0.14 0.17 0.18 0.16 0.15 0.16 0.14 0.12 0.08 0.06 0.06 0.07 0.11 0.14 0.13 0.14 0.15 0.15 0.24 0.34 0.24 0.20 0.13 0.11 0.11 0.10 0.09 0.08 0.08 0.07 0.09
0.02 0.03 0.04 0.05 0.05 0.06 0.06 0.05 0.04 0.04 0.04 0.04 0.03 0.03 0.03 0.03 0.03 0.04 0.04 0.04 0.05 0.05 0.05 0.04 0.03 0.02 0.02 0.03 0.03 0.03 0.05 0.05 0.05 0.04 0.06 0.09 0.09 0.07 0.08 0.13 0.17 0.17 0.12 0.10 0.11 0.11 0.13 0.13 0.13 0.16 0.15 0.12 0.08 0.05 0.06 0.06 0.07 0.08 0.11 0.15 0.17 0.22 0.21 0.15 0.13 0.12 0.12 0.12 0.11 0.10 0.09 0.12 0.07 0.06
0.02 0.02 0.02 0.03 0.04 0.04 0.05 0.05 0.05 0.05 0.05 0.05 0.05 0.04 0.05 0.05 0.04 0.04 0.04 0.04 0.04 0.04 0.03 0.03 0.02 0.02 0.03 0.03 0.03 0.04 0.05 0.05 0.05 0.06 0.07 0.07 0.09 0.10 0.09 0.13 0.18 0.17 0.18 0.14 0.11 0.09 0.08 0.09 0.12 0.16 0.13 0.13 0.14 0.11 0.10 0.11 0.08 0.07 0.07 0.09 0.13 0.16 0.17 0.29 0.24 0.18 0.15 0.15 0.15 0.16 0.15 0.13 0.11 0.10
0.03 0.02 0.03 0.03 0.04 0.05 0.06 0.06 0.06 0.06 0.07 0.07 0.07 0.07 0.07 0.07 0.08 0.08 0.08 0.09 0.08 0.07 0.06 0.06 0.06 0.05 0.04 0.03 0.03 0.03 0.04 0.04 0.04 0.04 0.06 0.07 0.10 0.15 0.15 0.18 0.13 0.12 0.15 0.15 0.13 0.11 0.10 0.10 0.09 0.12 0.15 0.14 0.13 0.17 0.18 0.14 0.12 0.11 0.09 0.09 0.09 0.10 0.12 0.14 0.17 0.16 0.19 0.20 0.19 0.19 0.18 0.15 0.12 0.10
0.03 0.04 0.04 0.04 0.04 0.05 0.05 0.06 0.07 0.07 0.08 0.08 0.08 0.08 0.09 0.10 0.12 0.13 0.14 0.15 0.14 0.13 0.13 0.12 0.12 0.12 0.11 0.11 0.09 0.07 0.07 0.06 0.05 0.05 0.06 0.09 0.10 0.14 0.20 0.22 0.16 0.10 0.08 0.08 0.08 0.09 0.10 0.11 0.12 0.13 0.16 0.22 0.24 0.20 0.18 0.16 0.13 0.13 0.14 0.14 0.13 0.11 0.10 0.10 0.11 0.15 0.19 0.20 0.20 0.21 0.21 0.19 0.15 0.12
0.03 0.03 0.03 0.04 0.04 0.05 0.06 0.08 0.10 0.10 0.10 0.11 0.11 0.11 0.10 0.11 0.12 0.13 0.16 0.18 0.19 0.19 0.18 0.16 0.14 0.12 0.12 0.11 0.10 0.10 0.08 0.07 0.07 0.07 0.08 0.09 0.14 0.19 0.18 0.18 0.15 0.13 0.12 0.10 0.08 0.06 0.08 0.14 0.22 0.31 0.37 0.39 0.44 0.40 0.28 0.22 0.19 0.17 0.17 0.16 0.16 0.16 0.13 0.11 0.10 0.11 0.12 0.14 0.16 0.18 0.18 0.17 0.17 0.14
0.03 0.04 0.05 0.06 0.06 0.07 0.08 0.09 0.10 0.11 0.14 0.15 0.15 0.14 0.12 0.11 0.11 0.13 0.14 0.13 0.13 0.14 0.15 0.16 0.16 0.15 0.15 0.15 0.15 0.14 0.13 0.12 0.11 0.11 0.12 0.13 0.16 0.16 0.17 0.15 0.12 0.11 0.12 0.12 0.10 0.11 0.13 0.13 0.20 0.32 0.42 0.48 0.50 0.49 0.38 0.25 0.19 0.20 0.23 0.21 0.18 0.16 0.15 0.15 0.14 0.14 0.14 0.16 0.14 0.15 0.18 0.21 0.19 0.16
0.04 0.05 0.06 0.08 0.08 0.09 0.10 0.12 0.14 0.15 0.16 0.16 0.15 0.15 0.16 0.15 0.14 0.14 0.14 0.13 0.13 0.13 0.13 0.12 0.12 0.12 0.13 0.13 0.14 0.14 0.15 0.19 0.21 0.17 0.16 0.12 0.13 0.15 0.16 0.15 0.12 0.12 0.14 0.12 0.10 0.12 0.19 0.21 0.22 0.24 0.29 0.33 0.34 0.28 0.21 0.18 0.15 0.10 0.10 0.13 0.15 0.15 0.12 0.15 0.19 0.20 0.16 0.14 0.14 0.13 0.11 0.10 0.11 0.13
0.06 0.07 0.08 0.09 0.10 0.11 0.12 0.14 0.15 0.15 0.15 0.16 0.17 0.17 0.17 0.17 0.16 0.14 0.13 0.14 0.14 0.13 0.12 0.12 0.12 0.11 0.12 0.12 0.15 0.16 0.15 0.16 0.17 0.20 0.19 0.18 0.20 0.20 0.20 0.21 0.20 0.15 0.14 0.15 0.16 0.12 0.14 0.17 0.23 0.26 0.26 0.28 0.26 0.18 0.13 0.12 0.12 0.11 0.06 0.07 0.12 0.15 0.10 0.12 0.16 0.16 0.17 0.15 0.13 0.13 0.11 0.11 0.10 0.11
0.09 0.10 0.11 0.12 0.12 0.13 0.14 0.15 0.17 0.17 0.17 0.17 0.17 0.17 0.15 0.13 0.12 0.11 0.11 0.12 0.11 0.11 0.11 0.11 0.11 0.11 0.11 0.11 0.12 0.13 0.15 0.15 0.17 0.18 0.17 0.18 0.17 0.18 0.20 0.21 0.21 0.22 0.21 0.20 0.17 0.19 0.21 0.22 0.24 0.25 0.24 0.22 0.19 0.16 0.11 0.09 0.08 0.07 0.09 0.09 0.08 0.10 0.11 0.12 0.11 0.12 0.14 0.17 0.17 0.16 0.16 0.13 0.11 0.13
0.10 0.10 0.11 0.12 0.13 0.13 0.14 0.15 0.15 0.16 0.17 0.17 0.17 0.18 0.18 0.16 0.14 0.15 0.15 0.14 0.14 0.13 0.14 0.14 0.14 0.14 0.14 0.13 0.12 0.12 0.12 0.13 0.14 0.13 0.14 0.15 0.17 0.17 0.16 0.16 0.17 0.19 0.27 0.27 0.26 0.23 0.24 0.26 0.21 0.23 0.19 0.14 0.13 0.16 0.13 0.12 0.10 0.08 0.09 0.14 0.11 0.09 0.13 0.11 0.11 0.13 0.15 0.13 0.15 0.19 0.23 0.20 0.22 0.23
0.10 0.10 0.11 0.11 0.12 0.12 0.13 0.14 0.15 0.15 0.15 0.15 0.15 0.16 0.16 0.17 0.17 0.19 0.19 0.19 0.19 0.19 0.18 0.17 0.17 0.18 0.17 0.16 0.17 0.17 0.17 0.14 0.13 0.13 0.12 0.12 0.14 0.17 0.17 0.16 0.21 0.19 0.21 0.26 0.24 0.24 0.23 0.19 0.17 0.17 0.18 0.17 0.14 0.20 0.35 0.32 0.30 0.28 0.25 0.21 0.18 0.15 0.13 0.15 0.15 0.16 0.16 0.18 0.17 0.18 0.20 0.21 0.21 0.25
0.09 0.10 0.10 0.10 0.11 0.11 0.13 0.14 0.13 0.14 0.14 0.14 0.15 0.15 0.16 0.16 0.16 0.18 0.17 0.17 0.17 0.18 0.19 0.20 0.20 0.20 0.19 0.18 0.17 0.17 0.18 0.17 0.16 0.16 0.15 0.14 0.14 0.14 0.15 0.19 0.24 0.23 0.21 0.20 0.17 0.15 0.12 0.13 0.18 0.18 0.29 0.48 0.35 0.41 0.46 0.34 0.27 0.24 0.24 0.23 0.23 0.21 0.21 0.19 0.19 0.21 0.23 0.26 0.27 0.27 0.29 0.28 0.21 0.21
0.07 0.08 0.08 0.09 0.09 0.11 0.12 0.13 0.13 0.14 0.15 0.15 0.17 0.17 0.18 0.17 0.17 0.17 0.17 0.18 0.19 0.21 0.22 0.21 0.21 0.21 0.20 0.19 0.19 0.19 0.20 0.19 0.19 0.18 0.17 0.16 0.17 0.18 0.18 0.17 0.16 0.15 0.15 0.13 0.10 0.10 0.14 0.16 0.18 0.25 0.32 0.38 0.41 0.39 0.35 0.24 0.17 0.16 0.19 0.21 0.24 0.25 0.25 0.24 0.24 0.24 0.23 0.20 0.21 0.21 0.21 0.24 0.30 0.34
0.07 0.07 0.07 0.07 0.09 0.10 0.11 0.12 0.13 0.14 0.15 0.18 0.20 0.20 0.20 0.20 0.20 0.21 0.22 0.23 0.25 0.27 0.26 0.26 0.25 0.24 0.23 0.23 0.22 0.22 0.22 0.22 0.22 0.22 0.20 0.18 0.17 0.17 0.16 0.16 0.17 0.17 0.19 0.20 0.21 0.23 0.21 0.23 0.24 0.26 0.34 0.35 0.28 0.31 0.32 0.26 0.23 0.20 0.21 0.20 0.31 0.28 0.29 0.34 0.35 0.31 0.29 0.26 0.27 0.22 0.19 0.16 0.16 0.11
0.07 0.07 0.07 0.07 0.08 0.09 0.10 0.11 0.12 0.14 0.16 0.18 0.19 0.19 0.18 0.18 0.19 0.21 0.21 0.22 0.25 0.26 0.26 0.27 0.27 0.27 0.26 0.26 0.27 0.27 0.25 0.23 0.23 0.22 0.22 0.21 0.21 0.20 0.19 0.19 0.20 0.22 0.23 0.20 0.21 0.22 0.22 0.24 0.26 0.26 0.28 0.26 0.24 0.22 0.20 0.21 0.22 0.25 0.26 0.25 0.27 0.26 0.26 0.32 0.45 0.44 0.44 0.46 0.35 0.25 0.20 0.18 0.15 0.13